Flag Weather past 2 weeks in Menongue, Angola

Now
68 °F

Mild.


Feels Like: 68 °F
Forecast: 59 / 79 °F
Wind: 6 mph from Northwest

Location: Ondangwa

Current Time: Nov 27, 2014 at 5:50:48 AM

Latest Report: Nov 27, 2014 at 5:00 AM


Visibility: N/A

Pressure: 30.01 "Hg

Humidity: 88%

Dew point: 64 °F

Location of MenongueLocation

Historic Weather in Menongue — Graph

°F

Menongue temperature yesterday

Maximum temperature yesterday: 91 °F (at 1:00 PM)
Minimum temperature yesterday: 70 °F (at 2:00 AM)
Average temperature yesterday: 80 °F

Past Weeks' High & Low Weather Summary

 TemperatureHumidityPressure
High99 °F (Nov 24, 3:00 PM)88% (Nov 12, 5:00 AM)30.09 "Hg (Nov 12, 5:00 AM)
Low66 °F (Nov 17, 3:00 AM)11% (Nov 21, 11:00 AM)29.83 "Hg (Nov 24, 5:00 PM)
Average80 °F44%29.98 "Hg
* Reported Nov 12 5:00 AM — Nov 27 4:00 AM, Menongue, Weather by CustomWeather, © 2014

Note: Actual official high and low records may vary slightly from our data, if they occured in-between our weather recording intervals... More about our weather records

Advertising

Menongue weather history for previous 24 hours

 ConditionsComfort  
Time TempWeatherWind HumidityBarometerVisibility
4:00 AM
Nov 27
70 °FMild.7 mph83%29.98 "HgN/A
3:00 AM70 °FMild.6 mph78%29.98 "HgN/A
2:00 AM70 °FMild.6 mph83%29.95 "HgN/A
1:00 AM75 °FMild.13 mph57%29.95 "HgN/A
12:00 AM77 °FWarm.6 mph57%29.98 "HgN/A
11:00 PM
Nov 26
77 °FWarm.7 mph54%29.98 "HgN/A
10:00 PM77 °FWarm.6 mph54%29.98 "HgN/A
9:00 PM79 °FWarm.5 mph48%29.95 "HgN/A
8:00 PM81 °FWarm.7 mph42%29.95 "HgN/A
7:00 PM86 °FPleasantly warm.2 mph33%29.89 "HgN/A
6:00 PM88 °FPleasantly warm.6 mph27%29.89 "HgN/A
4:00 PM90 °FHot.3 mph27%29.89 "HgN/A
3:00 PM91 °FHot.2 mph30%29.89 "HgN/A
2:00 PM88 °FPleasantly warm.8 mph35%29.92 "HgN/A
1:00 PM91 °FScattered clouds.2 mph34%29.98 "HgN/A
12:00 PM90 °FBroken clouds.2 mph36%29.98 "HgN/A
11:00 AM86 °FPartly sunny.No wind46%30.01 "HgN/A
10:00 AM82 °FScattered clouds.No wind51%30.04 "HgN/A
9:00 AM81 °FPartly sunny.2 mph58%30.04 "HgN/A
8:00 AM75 °FScattered clouds.2 mph69%30.04 "HgN/A
5:00 AM72 °FMild.2 mph73%29.98 "HgN/A
Weather by CustomWeather, © 2014

See weather overviewHow to use our weather pages